Location: Maiden_LMO
(35.5760°N, 81.2120°W)
Time: 17:21:31
(UTC-04:00)

ADEOS II - Visible Passes

Search period start: 02 September 2014 00:00
Search period end: 12 September 2014 00:00
Orbit: 800 x 804 km, 98.3° (Epoch: 01 September)

Date Brightness Start Highest point End Pass type
(mag) Time Alt. Az. Time Alt. Az. Time Alt. Az.
03 Sep 5.2 06:15:31 10° ENE 06:18:13 14° E 06:20:55 10° ESE visible
07 Sep 5.3 06:11:45 10° ENE 06:14:04 13° E 06:16:24 10° ESE visible
10 Sep 4.9 06:32:06 10° NE 06:36:08 22° E 06:40:08 10° SE visible
11 Sep 5.4 06:08:04 10° ENE 06:09:55 12° E 06:11:45 10° ESE visible
